739  
ASUS44 KMAF 220110  
RWRMAF  
MIDLAND AREA WEATHER ROUNDUP  
NATIONAL WEATHER SERVICE MIDLAND TX  
700 PM CST TUE NOV 21 2017  
   
..IN SOUTHWEST TEXAS AND SOUTHEAST NEW MEXICO
 
 
 
CITY SKY/WX TMP DP RH WIND PRES REMARKS
 
ALPINE CLEAR 59 11 14 NE10 30.30R  
ANDREWS FAIR 56 28 34 N10 30.22R  
ARTESIA CLEAR 59 23 25 NE6 30.25R  
BIG SPRING CLEAR 62 28 27 N17G23 30.21R  
CARLSBAD CLEAR 54 26 34 CALM 30.22R  
DRYDEN N/A 63 14 15 N10 30.12R  
FORT STOCKTON CLEAR 60 22 23 NE7 30.19R  
GUAD PASS CLEAR 55 19 24 NE25 30.28R  
HOBBS CLEAR 59 27 29 NE13 30.24R  
LAMESA FAIR 59 25 27 NE10 30.23R  
MARFA CLEAR 59 9 13 NE20G25 30.25R  
MIDLAND AIRPK CLEAR 60 26 27 NE8 30.20R  
MIDLAND INTL CLEAR 62 25 24 NE14 30.18R  
ODESSA N/A 56 25 30 NE10 30.20R  
PECOS CLEAR 62 25 24 NE7 30.20R  
PRESIDIO FAIR 73 15 10 N18G26 30.12R  
SEMINOLE CLEAR 59 28 30 NE9 30.25R  
SNYDER CLEAR 61 26 26 NE17G29 30.20R  
WINK CLEAR 59 23 25 NE6 30.18R  

   
..OTHER STATIONS IN TEXAS
 
 
 
CITY SKY/WX TMP DP RH WIND PRES REMARKS
 
ABILENE CLEAR 57 27 31 N26G36 30.17R  
AMARILLO CLEAR 41 26 55 N9 30.33R WCI 35  
AUSTIN PTCLDY 66 51 58 N12 29.96R  
BROWNSVILLE PTCLDY 73 66 78 CALM 29.85R  
CORPUS CHRISTI CLOUDY 70 66 87 E7 29.86R  
DALLAS FTW PTCLDY 62 47 57 N15 30.08R  
DEL RIO CLEAR 69 28 21 NW8G17 30.01R  
EL PASO MOCLDY 66 19 16 E8 30.18R  
HOUSTON INT CLOUDY 67 63 87 NE12 29.94R  
LUBBOCK PTCLDY 54 24 31 NE22G30 30.25R  
SAN ANGELO CLEAR 63 29 27 N17 30.11R  
SAN ANTONIO PTCLDY 68 38 33 N12 29.94R  
WACO CLEAR 63 51 65 N8 30.03R  
WICHITA FALLS CLEAR 41 6 23 N15 30.33R WCI 33  

   
..OTHER LOCATIONS IN NEW MEXICO
 
 
 
CITY SKY/WX TMP DP RH WIND PRES REMARKS
 
ALAMOGORDO CLEAR 63 18 17 E8 30.19R  
ALBUQUERQUE MOCLDY 56 19 23 E14 30.28R  
CANNON AFB CLEAR 49 27 43 NE13 30.33R  
CLOVIS CLEAR 47 27 45 NE14 30.33R  
HOLLOMAN AFB CLEAR 63 22 21 E7 30.19R  
ROSWELL CLEAR 57 25 29 NE6 30.26R  
RUIDOSO CLEAR 46 16 29 SE8 30.39R  
SANTA FE CLOUDY 49 20 31 SE9 30.33R  
TRUTH OR CONSE MOCLDY 65 22 19 NE8 30.21R  
TUCUMCARI CLEAR 51 28 41 E14 30.31R  

 
 
 
CLICK HERE TO GO TO PREVIOUS BULLETINS.

The Nexlab TX Page
The Nexlab NM Page Main Text Page